CCA6479 ZYHB-ZULS

Flight info

Callsign CCA6479
Flight time 5h 21m
Altitude 34100
Route LEG09D LEGAG W204 RUSBO G212 BUMDU W47 ASAVA/K0857S1100 W45 VAGBI B215 GODON W43 SAVPA W696 MENED W276 ANRUG W279 ONEBA G212 JTG W236 CTU B213 NONUG/K0843S1160 B213 IGELA W522 IGDAG IGD10A
Aircraft A319/M-SDE3FGHIRWY/LB1

Departure

Time 2026-04-28 07:20
Airport Harbin Taiping International Airport (ZYHB)

Arrival

Time 2026-04-28 12:42
Airport Lhasa Gonggar International Airport (ZULS)
Time Latitude Longitude Altitude Speed Heading
2026-04-28 06:54 45.61814 126.23454 464 ft 0 kts 309°
2026-04-28 07:06 45.61809 126.23462 464 ft 3 kts 309°
2026-04-28 07:07 45.61797 126.23483 462 ft 3 kts 309°
2026-04-28 07:07 45.61785 126.23504 464 ft 3 kts 309°
2026-04-28 07:07 45.61778 126.23526 464 ft 3 kts 235°
2026-04-28 07:07 45.61781 126.23532 464 ft 0 kts 224°
2026-04-28 07:09 45.61779 126.23529 464 ft 1 kts 224°
2026-04-28 07:09 45.61776 126.23526 462 ft 0 kts 217°
2026-04-28 07:09 45.61771 126.23524 461 ft 2 kts 202°
2026-04-28 07:10 45.61739 126.23505 464 ft 8 kts 202°
2026-04-28 07:10 45.61669 126.23531 463 ft 14 kts 154°
2026-04-28 07:10 45.61575 126.23602 461 ft 15 kts 130°
2026-04-28 07:10 45.61493 126.23579 464 ft 14 kts 219°
2026-04-28 07:11 45.61419 126.23492 464 ft 14 kts 219°
2026-04-28 07:11 45.61344 126.23449 462 ft 11 kts 136°
2026-04-28 07:11 45.61281 126.23521 463 ft 12 kts 143°
2026-04-28 07:11 45.61253 126.23569 464 ft 0 kts 112°
2026-04-28 07:18 45.61251 126.23573 465 ft 1 kts 111°
2026-04-28 07:18 45.61250 126.23612 464 ft 7 kts 86°
2026-04-28 07:19 45.61257 126.23701 464 ft 11 kts 82°
2026-04-28 07:19 45.61302 126.23801 461 ft 13 kts 40°
2026-04-28 07:19 45.61376 126.23890 465 ft 15 kts 40°
2026-04-28 07:19 45.61552 126.24092 462 ft 64 kts 40°
2026-04-28 07:20 45.62058 126.24683 459 ft 122 kts 39°
2026-04-28 07:20 45.62845 126.25601 458 ft 168 kts 38°
2026-04-28 07:20 45.63744 126.26641 991 ft 165 kts 32°
2026-04-28 07:20 45.64784 126.27221 1594 ft 160 kts 359°
2026-04-28 07:21 45.65873 126.26856 1944 ft 171 kts 329°
2026-04-28 07:21 45.66988 126.25999 2227 ft 194 kts 329°
2026-04-28 07:21 45.68248 126.25045 2508 ft 217 kts 330°
2026-04-28 07:22 45.71025 126.22973 4009 ft 229 kts 330°
2026-04-28 07:22 45.72444 126.21916 4924 ft 232 kts 330°
2026-04-28 07:22 45.73873 126.20844 5829 ft 233 kts 329°
2026-04-28 07:22 45.75088 126.19316 6581 ft 237 kts 304°
2026-04-28 07:23 45.75777 126.17083 7004 ft 255 kts 288°
2026-04-28 07:23 45.76329 126.14636 7697 ft 261 kts 288°
2026-04-28 07:23 45.76892 126.12151 8469 ft 265 kts 288°
2026-04-28 07:23 45.77468 126.09632 9259 ft 268 kts 289°
2026-04-28 07:24 45.78049 126.07100 10069 ft 270 kts 289°
2026-04-28 07:24 45.78602 126.04460 10414 ft 289 kts 282°
2026-04-28 07:24 45.78750 126.01479 10576 ft 313 kts 268°
2026-04-28 07:24 45.78390 125.98290 10709 ft 337 kts 261°
2026-04-28 07:25 45.77933 125.94915 10929 ft 353 kts 261°
2026-04-28 07:25 45.77464 125.91428 11447 ft 360 kts 261°
2026-04-28 07:25 45.76991 125.87895 12018 ft 365 kts 261°
2026-04-28 07:25 45.76515 125.84311 12610 ft 369 kts 261°
2026-04-28 07:26 45.76032 125.80681 13205 ft 374 kts 262°
2026-04-28 07:26 45.75546 125.77041 13796 ft 378 kts 262°
2026-04-28 07:26 45.75046 125.73321 14325 ft 382 kts 262°
2026-04-28 07:26 45.74540 125.69579 14874 ft 385 kts 262°
2026-04-28 07:27 45.74018 125.65810 15428 ft 388 kts 260°
2026-04-28 07:27 45.73137 125.62142 15951 ft 396 kts 247°
2026-04-28 07:27 45.71685 125.58792 16494 ft 403 kts 234°
2026-04-28 07:27 45.69694 125.55929 17029 ft 410 kts 221°
2026-04-28 07:28 45.67269 125.53748 17543 ft 417 kts 207°
2026-04-28 07:28 45.64525 125.52317 18071 ft 423 kts 199°
2026-04-28 07:28 45.61708 125.51068 18521 ft 426 kts 199°
2026-04-28 07:28 45.58876 125.49821 18928 ft 429 kts 199°
2026-04-28 07:29 45.56028 125.48568 19325 ft 432 kts 199°
2026-04-28 07:29 45.53148 125.47297 19722 ft 435 kts 199°
2026-04-28 07:29 45.50259 125.46019 20093 ft 438 kts 199°
2026-04-28 07:29 45.47344 125.44730 20471 ft 441 kts 199°
2026-04-28 07:30 45.44410 125.43434 20848 ft 444 kts 199°
2026-04-28 07:30 45.41455 125.42133 21215 ft 447 kts 199°
2026-04-28 07:30 45.38490 125.40829 21574 ft 450 kts 199°
2026-04-28 07:30 45.35489 125.39510 21933 ft 453 kts 199°
2026-04-28 07:31 45.32481 125.38189 22286 ft 456 kts 199°
2026-04-28 07:31 45.29448 125.36857 22596 ft 458 kts 199°
2026-04-28 07:31 45.26401 125.35521 22949 ft 461 kts 199°
2026-04-28 07:31 45.23331 125.34176 23323 ft 463 kts 199°
2026-04-28 07:32 45.20250 125.32830 23647 ft 465 kts 199°
2026-04-28 07:32 45.17153 125.31480 23923 ft 467 kts 199°
2026-04-28 07:32 45.14051 125.30125 24201 ft 469 kts 199°
2026-04-28 07:32 45.10929 125.28762 24475 ft 471 kts 199°
2026-04-28 07:33 45.07868 125.27134 24721 ft 471 kts 207°
2026-04-28 07:33 45.05017 125.24902 24978 ft 470 kts 216°
2026-04-28 07:33 45.02428 125.22113 25238 ft 468 kts 225°
2026-04-28 07:33 45.00167 125.18834 25493 ft 466 kts 233°
2026-04-28 07:34 44.98246 125.15153 25745 ft 465 kts 239°
2026-04-28 07:34 44.96402 125.11411 25994 ft 467 kts 238°
2026-04-28 07:34 44.94530 125.07640 26239 ft 469 kts 238°
2026-04-28 07:34 44.92660 125.03898 26462 ft 471 kts 238°
2026-04-28 07:35 44.90766 125.00117 26713 ft 472 kts 238°
2026-04-28 07:35 44.88878 124.96355 27060 ft 471 kts 238°
2026-04-28 07:35 44.86984 124.92579 27396 ft 470 kts 238°
2026-04-28 07:35 44.85107 124.88842 27750 ft 470 kts 238°
2026-04-28 07:36 44.83225 124.85103 28104 ft 469 kts 238°
2026-04-28 07:36 44.81338 124.81357 28454 ft 468 kts 238°
2026-04-28 07:36 44.79455 124.77619 28797 ft 467 kts 238°
2026-04-28 07:36 44.77586 124.73906 29178 ft 466 kts 238°
2026-04-28 07:37 44.75720 124.70206 29548 ft 465 kts 238°
2026-04-28 07:37 44.73849 124.66501 29918 ft 465 kts 238°
2026-04-28 07:37 44.71979 124.62808 30249 ft 464 kts 238°
2026-04-28 07:37 44.70115 124.59133 30549 ft 464 kts 238°
2026-04-28 07:38 44.68243 124.55449 30830 ft 463 kts 238°
2026-04-28 07:38 44.66372 124.51773 31101 ft 463 kts 238°
2026-04-28 07:38 44.64498 124.48094 31294 ft 466 kts 238°
2026-04-28 07:38 44.62606 124.44380 31495 ft 468 kts 238°
2026-04-28 07:39 44.60737 124.40677 31756 ft 467 kts 240°
2026-04-28 07:39 44.59156 124.36719 32044 ft 462 kts 249°
2026-04-28 07:39 44.58027 124.32545 32353 ft 457 kts 258°
2026-04-28 07:39 44.57346 124.28240 32655 ft 452 kts 266°
2026-04-28 07:40 44.57001 124.23875 32958 ft 451 kts 268°
2026-04-28 07:40 44.56662 124.19500 33262 ft 451 kts 267°
2026-04-28 07:40 44.56096 124.15180 33556 ft 455 kts 258°
2026-04-28 07:40 44.55038 124.10990 33869 ft 459 kts 249°
2026-04-28 07:41 44.53512 124.07050 34087 ft 464 kts 240°
2026-04-28 07:41 44.51623 124.03359 34135 ft 467 kts 237°
2026-04-28 07:41 44.47788 123.96037 34135 ft 468 kts 237°
2026-04-28 07:42 44.43954 123.88700 34135 ft 468 kts 237°
2026-04-28 07:42 44.40158 123.81323 34135 ft 467 kts 238°
2026-04-28 07:43 44.36385 123.73973 34135 ft 467 kts 238°
2026-04-28 07:43 44.32601 123.66635 34135 ft 467 kts 237°
2026-04-28 07:44 44.28788 123.59301 34126 ft 467 kts 237°
2026-04-28 07:44 44.24991 123.52013 34131 ft 466 kts 237°
2026-04-28 07:45 44.21181 123.44693 34114 ft 466 kts 237°
2026-04-28 07:45 44.17374 123.37398 34115 ft 468 kts 237°
2026-04-28 07:46 44.13543 123.30082 34121 ft 469 kts 237°
2026-04-28 07:46 44.09696 123.22767 34125 ft 469 kts 237°
2026-04-28 07:47 44.05845 123.15460 34124 ft 469 kts 237°
2026-04-28 07:47 44.01992 123.08167 34122 ft 470 kts 237°
2026-04-28 07:48 43.98131 123.00866 34134 ft 469 kts 237°
2026-04-28 07:48 43.94279 122.93597 34141 ft 469 kts 237°
2026-04-28 07:49 43.90457 122.86276 34141 ft 468 kts 238°
2026-04-28 07:49 43.86713 122.78926 34133 ft 468 kts 238°
2026-04-28 07:50 43.82958 122.71562 34139 ft 468 kts 238°
2026-04-28 07:50 43.79194 122.64245 34149 ft 468 kts 238°
2026-04-28 07:51 43.75406 122.56917 34136 ft 468 kts 237°
2026-04-28 07:51 43.71626 122.49633 34151 ft 467 kts 237°
2026-04-28 07:52 43.67844 122.42359 34155 ft 466 kts 237°
2026-04-28 07:52 43.64064 122.35099 34156 ft 466 kts 237°
2026-04-28 07:53 43.60288 122.27852 34152 ft 466 kts 237°
2026-04-28 07:53 43.56504 122.20629 34158 ft 465 kts 237°
2026-04-28 07:54 43.52737 122.13405 34155 ft 465 kts 237°
2026-04-28 07:54 43.48995 122.06141 34128 ft 466 kts 237°
2026-04-28 07:55 43.45239 121.98866 34148 ft 468 kts 237°
2026-04-28 07:55 43.41460 121.91599 34156 ft 468 kts 237°
2026-04-28 07:56 43.37674 121.84341 34162 ft 468 kts 237°
2026-04-28 07:56 43.33886 121.77101 34164 ft 467 kts 237°
2026-04-28 07:57 43.30105 121.69885 34179 ft 466 kts 237°
2026-04-28 07:57 43.26327 121.62681 34179 ft 465 kts 237°
2026-04-28 07:58 43.22564 121.55528 34174 ft 464 kts 237°
2026-04-28 07:58 43.18778 121.48354 34176 ft 463 kts 237°
2026-04-28 07:59 43.15007 121.41224 34182 ft 463 kts 237°
2026-04-28 07:59 43.11239 121.34119 34185 ft 462 kts 237°
2026-04-28 08:00 43.07462 121.27016 34179 ft 461 kts 237°
2026-04-28 08:00 43.03699 121.19961 34184 ft 460 kts 237°
2026-04-28 08:01 42.99933 121.12917 34185 ft 459 kts 237°
2026-04-28 08:01 42.96170 121.05892 34193 ft 459 kts 237°
2026-04-28 08:02 42.92419 120.98897 34195 ft 457 kts 237°
2026-04-28 08:02 42.88666 120.91914 34187 ft 457 kts 236°
2026-04-28 08:03 42.84907 120.84938 34172 ft 458 kts 236°
2026-04-28 08:03 42.81135 120.77955 34178 ft 459 kts 236°
2026-04-28 08:04 42.77354 120.70988 34185 ft 459 kts 236°
2026-04-28 08:04 42.73563 120.64009 34184 ft 459 kts 236°
2026-04-28 08:05 42.69777 120.57048 34193 ft 459 kts 236°
2026-04-28 08:05 42.65989 120.50096 34199 ft 458 kts 236°
2026-04-28 08:06 42.62205 120.43164 34208 ft 457 kts 236°
2026-04-28 08:06 42.58420 120.36242 34208 ft 457 kts 236°
2026-04-28 08:07 42.54637 120.29363 34207 ft 456 kts 236°
2026-04-28 08:07 42.50844 120.22491 34225 ft 455 kts 236°
2026-04-28 08:08 42.47060 120.15636 34221 ft 454 kts 236°
2026-04-28 08:08 42.43292 120.08832 34219 ft 454 kts 236°
2026-04-28 08:09 42.39509 120.02010 34224 ft 453 kts 236°
2026-04-28 08:09 42.35751 119.95232 34228 ft 452 kts 236°
2026-04-28 08:10 42.31977 119.88450 34234 ft 452 kts 236°
2026-04-28 08:10 42.28202 119.81694 34222 ft 451 kts 236°
2026-04-28 08:11 42.24440 119.74963 34223 ft 450 kts 236°
2026-04-28 08:11 42.20677 119.68236 34220 ft 451 kts 236°
2026-04-28 08:12 42.16893 119.61506 34219 ft 451 kts 236°
2026-04-28 08:12 42.13113 119.54800 34226 ft 450 kts 236°
2026-04-28 08:13 42.09329 119.48101 34236 ft 449 kts 236°
2026-04-28 08:13 42.05556 119.41434 34238 ft 449 kts 236°
2026-04-28 08:14 42.01783 119.34770 34226 ft 448 kts 236°
2026-04-28 08:14 41.98011 119.28130 34244 ft 447 kts 236°
2026-04-28 08:15 41.94246 119.21522 34247 ft 446 kts 236°
2026-04-28 08:15 41.90571 119.15086 34248 ft 446 kts 236°
2026-04-28 08:16 41.86755 119.08405 34248 ft 444 kts 236°
2026-04-28 08:16 41.83028 119.01905 34256 ft 442 kts 236°
2026-04-28 08:17 41.79272 118.95356 34259 ft 441 kts 236°
2026-04-28 08:17 41.75569 118.88915 34255 ft 440 kts 236°
2026-04-28 08:18 41.71841 118.82455 34265 ft 439 kts 236°
2026-04-28 08:18 41.68128 118.76046 34265 ft 438 kts 236°
2026-04-28 08:19 41.64409 118.69614 34256 ft 438 kts 236°
2026-04-28 08:19 41.60713 118.63241 34255 ft 437 kts 236°
2026-04-28 08:20 41.57014 118.56875 34265 ft 437 kts 236°
2026-04-28 08:20 41.53266 118.50455 34264 ft 437 kts 236°
2026-04-28 08:21 41.49570 118.44028 34243 ft 434 kts 240°
2026-04-28 08:21 41.46439 118.37196 34244 ft 433 kts 242°
2026-04-28 08:22 41.43348 118.30453 34245 ft 433 kts 242°
2026-04-28 08:22 41.40245 118.23715 34243 ft 433 kts 242°
2026-04-28 08:23 41.37125 118.16960 34256 ft 432 kts 242°
2026-04-28 08:23 41.33997 118.10182 34266 ft 430 kts 242°
2026-04-28 08:24 41.30868 118.03410 34259 ft 430 kts 242°
2026-04-28 08:24 41.27752 117.96692 34268 ft 430 kts 242°
2026-04-28 08:25 41.24804 117.90366 34263 ft 430 kts 242°
2026-04-28 08:26 41.20314 117.80751 34242 ft 426 kts 242°
2026-04-28 08:26 41.17219 117.74165 34242 ft 426 kts 242°
2026-04-28 08:27 41.14176 117.67627 34213 ft 426 kts 242°
2026-04-28 08:27 41.11169 117.61176 34248 ft 424 kts 242°
2026-04-28 08:28 41.08056 117.54544 34266 ft 423 kts 242°
2026-04-28 08:28 41.04823 117.48113 34269 ft 426 kts 234°
2026-04-28 08:29 41.00397 117.43240 34334 ft 438 kts 215°
2026-04-28 08:29 40.94771 117.40116 34244 ft 443 kts 208°
2026-04-28 08:30 40.88987 117.37168 34239 ft 443 kts 208°
2026-04-28 08:30 40.83277 117.34243 34227 ft 443 kts 209°
2026-04-28 08:31 40.77538 117.31311 34258 ft 442 kts 210°
2026-04-28 08:31 40.72510 117.27298 34266 ft 423 kts 228°
2026-04-28 08:32 40.68870 117.21604 34266 ft 408 kts 244°
2026-04-28 08:32 40.66278 117.15026 34271 ft 403 kts 248°
2026-04-28 08:33 40.63738 117.08522 34285 ft 402 kts 247°
2026-04-28 08:33 40.61168 117.01980 34296 ft 400 kts 247°
2026-04-28 08:34 40.58616 116.95470 34287 ft 399 kts 247°
2026-04-28 08:34 40.56082 116.89035 34255 ft 399 kts 248°
2026-04-28 08:35 40.53541 116.82590 34278 ft 398 kts 247°
2026-04-28 08:35 40.50979 116.76100 34274 ft 398 kts 247°
2026-04-28 08:36 40.48441 116.69665 34278 ft 398 kts 247°
2026-04-28 08:36 40.45898 116.63242 34272 ft 399 kts 247°
2026-04-28 08:37 40.43437 116.56981 34271 ft 397 kts 247°
2026-04-28 08:37 40.40899 116.50594 34299 ft 396 kts 247°
2026-04-28 08:38 40.38341 116.44222 34286 ft 395 kts 247°
2026-04-28 08:38 40.36194 116.38894 34286 ft 395 kts 247°
2026-04-28 08:39 40.33041 116.31678 34275 ft 401 kts 238°
2026-04-28 08:39 40.29432 116.26088 34280 ft 395 kts 237°
2026-04-28 08:40 40.25875 116.20602 34273 ft 398 kts 237°
2026-04-28 08:40 40.22327 116.15104 34285 ft 399 kts 237°
2026-04-28 08:41 40.18726 116.09558 34282 ft 399 kts 236°
2026-04-28 08:41 40.15175 116.04109 34270 ft 399 kts 236°
2026-04-28 08:42 40.11579 115.98601 34276 ft 399 kts 236°
2026-04-28 08:42 40.07958 115.93067 34270 ft 400 kts 236°
2026-04-28 08:43 40.04336 115.87530 34266 ft 402 kts 236°
2026-04-28 08:43 40.00707 115.81993 34257 ft 397 kts 237°
2026-04-28 08:44 39.97144 115.76567 34266 ft 394 kts 237°
2026-04-28 08:44 39.93600 115.71187 34275 ft 393 kts 237°
2026-04-28 08:45 39.90033 115.65779 34277 ft 393 kts 237°
2026-04-28 08:45 39.86484 115.60401 34257 ft 393 kts 237°
2026-04-28 08:46 39.82925 115.55023 34283 ft 391 kts 237°
2026-04-28 08:46 39.79378 115.49675 34296 ft 390 kts 237°
2026-04-28 08:47 39.75979 115.44235 34298 ft 383 kts 244°
2026-04-28 08:47 39.73532 115.38210 34294 ft 378 kts 248°
2026-04-28 08:48 39.71135 115.32159 34311 ft 376 kts 248°
2026-04-28 08:48 39.68754 115.26170 34316 ft 374 kts 248°
2026-04-28 08:49 39.66772 115.21175 34306 ft 373 kts 249°
2026-04-28 08:49 39.63994 115.14189 34302 ft 373 kts 249°
2026-04-28 08:50 39.61617 115.08233 34289 ft 373 kts 248°
2026-04-28 08:50 39.59230 115.02272 34262 ft 368 kts 248°
2026-04-28 08:51 39.56870 114.96395 34294 ft 369 kts 248°
2026-04-28 08:51 39.54515 114.90526 34298 ft 370 kts 248°
2026-04-28 08:52 39.52141 114.84623 34287 ft 370 kts 248°
2026-04-28 08:52 39.49762 114.78719 34290 ft 370 kts 248°
2026-04-28 08:53 39.47390 114.72826 34294 ft 370 kts 248°
2026-04-28 08:53 39.45018 114.66964 34295 ft 366 kts 248°
2026-04-28 08:54 39.42665 114.61164 34296 ft 363 kts 248°
2026-04-28 08:54 39.40719 114.56379 34300 ft 361 kts 248°
2026-04-28 08:55 39.38388 114.50650 34304 ft 360 kts 248°
2026-04-28 08:55 39.35671 114.43989 34306 ft 360 kts 248°
2026-04-28 08:56 39.33339 114.38292 34276 ft 358 kts 248°
2026-04-28 08:56 39.31024 114.32633 34291 ft 356 kts 248°
2026-04-28 08:57 39.28719 114.27011 34306 ft 356 kts 248°
2026-04-28 08:57 39.26413 114.21398 34301 ft 354 kts 248°
2026-04-28 08:58 39.24292 114.16832 34302 ft 364 kts 238°
2026-04-28 08:58 39.22427 114.14542 34293 ft 379 kts 227°
2026-04-28 08:58 39.19217 114.12417 34299 ft 406 kts 211°
2026-04-28 08:59 39.13758 114.10458 34295 ft 408 kts 210°
2026-04-28 08:59 39.08314 114.08533 34316 ft 406 kts 210°
2026-04-28 09:00 39.02872 114.06601 34323 ft 406 kts 210°
2026-04-28 09:00 38.97438 114.04672 34265 ft 405 kts 210°
2026-04-28 09:01 38.92045 114.02769 34309 ft 402 kts 210°
2026-04-28 09:01 38.86669 114.00858 34313 ft 401 kts 210°
2026-04-28 09:02 38.81316 113.98961 34318 ft 400 kts 210°
2026-04-28 09:02 38.76857 113.97392 34288 ft 399 kts 210°
2026-04-28 09:03 38.70649 113.95203 34301 ft 397 kts 210°
2026-04-28 09:03 38.66218 113.93638 34295 ft 397 kts 210°
2026-04-28 09:04 38.60913 113.91770 34292 ft 395 kts 210°
2026-04-28 09:04 38.54736 113.89596 34288 ft 396 kts 210°
2026-04-28 09:05 38.49435 113.87740 34297 ft 396 kts 210°
2026-04-28 09:05 38.44135 113.85889 34293 ft 395 kts 210°
2026-04-28 09:06 38.38882 113.83970 34271 ft 387 kts 214°
2026-04-28 09:06 38.36519 113.82492 34276 ft 371 kts 223°
2026-04-28 09:06 38.34505 113.80558 34273 ft 359 kts 232°
2026-04-28 09:07 38.31551 113.75684 34278 ft 343 kts 248°
2026-04-28 09:07 38.29502 113.70218 34317 ft 342 kts 249°
2026-04-28 09:08 38.27450 113.64789 34313 ft 342 kts 248°
2026-04-28 09:08 38.25734 113.60259 34315 ft 341 kts 248°
2026-04-28 09:09 38.23321 113.53923 34257 ft 342 kts 248°
2026-04-28 09:09 38.21250 113.48482 34284 ft 344 kts 248°
2026-04-28 09:10 38.19161 113.42996 34292 ft 345 kts 248°
2026-04-28 09:10 38.17078 113.37528 34329 ft 344 kts 248°
2026-04-28 09:11 38.15019 113.32079 34320 ft 342 kts 248°
2026-04-28 09:11 38.12999 113.26627 34315 ft 342 kts 249°
2026-04-28 09:12 38.11316 113.22082 34305 ft 342 kts 248°
2026-04-28 09:12 38.08945 113.15732 34258 ft 343 kts 248°
2026-04-28 09:13 38.06903 113.10269 34298 ft 343 kts 248°
2026-04-28 09:13 38.05196 113.05733 34300 ft 343 kts 248°
2026-04-28 09:14 38.02803 112.99379 34296 ft 342 kts 248°
2026-04-28 09:14 38.00749 112.93939 34293 ft 342 kts 248°
2026-04-28 09:15 37.98699 112.88513 34288 ft 342 kts 248°
2026-04-28 09:15 37.96654 112.83090 34282 ft 342 kts 248°
2026-04-28 09:16 37.94608 112.77674 34242 ft 342 kts 248°
2026-04-28 09:16 37.92554 112.72254 34244 ft 343 kts 248°
2026-04-28 09:17 37.90491 112.66819 34248 ft 343 kts 248°
2026-04-28 09:17 37.88414 112.61371 34249 ft 344 kts 248°
2026-04-28 09:18 37.86294 112.55958 34255 ft 345 kts 246°
2026-04-28 09:18 37.84406 112.51514 34254 ft 345 kts 245°
2026-04-28 09:19 37.81732 112.45322 34207 ft 345 kts 245°
2026-04-28 09:19 37.79442 112.39952 34253 ft 349 kts 245°
2026-04-28 09:20 37.77531 112.35444 34267 ft 350 kts 246°
2026-04-28 09:20 37.75009 112.29044 34266 ft 349 kts 248°
2026-04-28 09:21 37.72941 112.23507 34273 ft 349 kts 247°
2026-04-28 09:21 37.71203 112.18905 34278 ft 349 kts 247°
2026-04-28 09:22 37.68746 112.12492 34250 ft 348 kts 246°
2026-04-28 09:22 37.66633 112.07004 34231 ft 349 kts 246°
2026-04-28 09:23 37.64506 112.01487 34240 ft 351 kts 246°
2026-04-28 09:23 37.62375 111.95956 34246 ft 351 kts 246°
2026-04-28 09:24 37.60244 111.90419 34256 ft 351 kts 246°
2026-04-28 09:24 37.58459 111.85825 34250 ft 351 kts 246°
2026-04-28 09:25 37.55960 111.79382 34271 ft 352 kts 246°
2026-04-28 09:25 37.53824 111.73878 34280 ft 351 kts 246°
2026-04-28 09:26 37.51668 111.68399 34256 ft 350 kts 244°
2026-04-28 09:26 37.48530 111.63626 34241 ft 359 kts 231°
2026-04-28 09:27 37.43197 111.57028 34227 ft 360 kts 231°
2026-04-28 09:27 37.39654 111.52616 34243 ft 359 kts 231°
2026-04-28 09:28 37.36095 111.48210 34230 ft 360 kts 231°
2026-04-28 09:28 37.33134 111.44555 34199 ft 360 kts 231°
2026-04-28 09:29 37.29565 111.40142 34208 ft 361 kts 231°
2026-04-28 09:29 37.26003 111.35736 34225 ft 360 kts 231°
2026-04-28 09:30 37.22433 111.31336 34220 ft 360 kts 231°
2026-04-28 09:30 37.18261 111.26204 34220 ft 361 kts 231°
2026-04-28 09:31 37.15276 111.22538 34184 ft 362 kts 231°
2026-04-28 09:31 37.11075 111.17387 34198 ft 363 kts 231°
2026-04-28 09:32 37.07470 111.12962 34225 ft 364 kts 231°
2026-04-28 09:32 37.03865 111.08539 34236 ft 364 kts 231°
2026-04-28 09:33 37.00252 111.04124 34228 ft 363 kts 231°
2026-04-28 09:33 36.96641 110.99731 34240 ft 363 kts 231°
2026-04-28 09:34 36.93038 110.95345 34235 ft 362 kts 231°
2026-04-28 09:34 36.89441 110.90968 34240 ft 362 kts 231°
2026-04-28 09:35 36.85876 110.86569 34236 ft 360 kts 234°
2026-04-28 09:35 36.83060 110.81521 34237 ft 355 kts 240°
2026-04-28 09:36 36.80791 110.77237 34248 ft 355 kts 240°
2026-04-28 09:36 36.77617 110.71265 34196 ft 355 kts 240°
2026-04-28 09:37 36.75350 110.67009 34195 ft 356 kts 240°
2026-04-28 09:37 36.72145 110.61006 34199 ft 355 kts 240°
2026-04-28 09:38 36.69411 110.55875 34207 ft 355 kts 240°
2026-04-28 09:38 36.67139 110.51620 34216 ft 356 kts 240°
2026-04-28 09:39 36.63936 110.45636 34218 ft 357 kts 240°
2026-04-28 09:39 36.61170 110.40494 34206 ft 359 kts 239°
2026-04-28 09:40 36.58392 110.35326 34230 ft 362 kts 239°
2026-04-28 09:40 36.55615 110.30147 34236 ft 360 kts 239°
2026-04-28 09:41 36.52832 110.24970 34235 ft 360 kts 239°
2026-04-28 09:41 36.50046 110.19819 34231 ft 359 kts 239°
2026-04-28 09:42 36.47268 110.14686 34235 ft 359 kts 239°
2026-04-28 09:42 36.44498 110.09569 34203 ft 359 kts 239°
2026-04-28 09:43 36.41699 110.04410 34210 ft 360 kts 239°
2026-04-28 09:43 36.38897 109.99243 34213 ft 361 kts 239°
2026-04-28 09:44 36.36578 109.94972 34228 ft 361 kts 239°
2026-04-28 09:44 36.33296 109.88955 34216 ft 361 kts 238°
2026-04-28 09:45 36.30486 109.83806 34228 ft 361 kts 238°
2026-04-28 09:45 36.27680 109.78665 34230 ft 361 kts 239°
2026-04-28 09:46 36.24874 109.73533 34205 ft 361 kts 238°
2026-04-28 09:46 36.22049 109.68392 34216 ft 362 kts 238°
2026-04-28 09:47 36.19692 109.64093 34220 ft 363 kts 238°
2026-04-28 09:47 36.16862 109.58937 34217 ft 362 kts 238°
2026-04-28 09:48 36.13552 109.52924 34216 ft 363 kts 238°
2026-04-28 09:48 36.11191 109.48637 34223 ft 363 kts 238°
2026-04-28 09:49 36.07872 109.42638 34198 ft 364 kts 238°
2026-04-28 09:49 36.05023 109.37492 34203 ft 364 kts 238°
2026-04-28 09:50 36.02638 109.33184 34206 ft 365 kts 238°
2026-04-28 09:50 35.99311 109.27170 34208 ft 365 kts 238°
2026-04-28 09:51 35.96886 109.22893 34211 ft 366 kts 233°
2026-04-28 09:51 35.94393 109.20023 34202 ft 374 kts 221°
2026-04-28 09:51 35.92099 109.18425 34212 ft 382 kts 213°
2026-04-28 09:52 35.87317 109.15585 34181 ft 383 kts 213°
2026-04-28 09:52 35.83239 109.13366 34184 ft 390 kts 208°
2026-04-28 09:53 35.77297 109.10735 34207 ft 390 kts 208°
2026-04-28 09:53 35.72202 109.08465 34214 ft 390 kts 208°
2026-04-28 09:54 35.67111 109.06202 34182 ft 390 kts 207°
2026-04-28 09:54 35.62861 109.04311 34192 ft 391 kts 208°
2026-04-28 09:55 35.57748 109.02046 34187 ft 392 kts 207°
2026-04-28 09:55 35.51755 108.99390 34197 ft 393 kts 207°
2026-04-28 09:56 35.46613 108.97117 34172 ft 393 kts 207°
2026-04-28 09:56 35.41458 108.94835 34191 ft 398 kts 207°
2026-04-28 09:57 35.37111 108.92916 34198 ft 398 kts 206°
2026-04-28 09:57 35.31914 108.90631 34203 ft 399 kts 207°
2026-04-28 09:58 35.25841 108.87971 34210 ft 399 kts 207°
2026-04-28 09:58 35.21485 108.86056 34180 ft 400 kts 206°
2026-04-28 09:59 35.16243 108.83754 34188 ft 402 kts 206°
2026-04-28 09:59 35.10116 108.81062 34194 ft 402 kts 206°
2026-04-28 10:00 35.04859 108.78767 34196 ft 403 kts 206°
2026-04-28 10:00 35.00462 108.76856 34230 ft 402 kts 206°
2026-04-28 10:01 34.94360 108.74198 34225 ft 400 kts 206°
2026-04-28 10:01 34.89125 108.71914 34223 ft 399 kts 206°
2026-04-28 10:02 34.84773 108.70017 34224 ft 399 kts 206°
2026-04-28 10:02 34.78684 108.67376 34179 ft 399 kts 205°
2026-04-28 10:03 34.73464 108.65113 34178 ft 401 kts 206°
2026-04-28 10:03 34.68210 108.62828 34176 ft 403 kts 206°
2026-04-28 10:04 34.63819 108.60924 34181 ft 403 kts 206°
2026-04-28 10:04 34.57647 108.58260 34180 ft 404 kts 206°
2026-04-28 10:05 34.52362 108.55984 34169 ft 404 kts 206°
2026-04-28 10:05 34.47079 108.53713 34179 ft 404 kts 206°
2026-04-28 10:06 34.41806 108.51444 34182 ft 403 kts 206°
2026-04-28 10:06 34.37412 108.49555 34186 ft 403 kts 206°
2026-04-28 10:07 34.32128 108.47295 34152 ft 403 kts 206°
2026-04-28 10:07 34.25955 108.44648 34303 ft 406 kts 206°
2026-04-28 10:08 34.23297 108.43507 34661 ft 405 kts 206°
2026-04-28 10:08 34.20665 108.42381 35030 ft 403 kts 206°
2026-04-28 10:08 34.18902 108.41626 35268 ft 402 kts 206°
2026-04-28 10:08 34.16278 108.40504 35624 ft 401 kts 206°
2026-04-28 10:09 34.13657 108.39384 35974 ft 399 kts 206°
2026-04-28 10:09 34.11036 108.38265 36156 ft 399 kts 206°
2026-04-28 10:09 34.05824 108.36047 36199 ft 397 kts 206°
2026-04-28 10:10 33.99759 108.33459 36208 ft 397 kts 206°
2026-04-28 10:10 33.95431 108.31616 36215 ft 397 kts 206°
2026-04-28 10:11 33.90240 108.29412 36219 ft 396 kts 206°
2026-04-28 10:11 33.84202 108.26853 36194 ft 395 kts 206°
2026-04-28 10:12 33.79879 108.25022 36206 ft 397 kts 206°
2026-04-28 10:12 33.73828 108.22463 36219 ft 396 kts 206°
2026-04-28 10:13 33.69500 108.20641 36219 ft 396 kts 206°
2026-04-28 10:13 33.64297 108.18446 36235 ft 397 kts 206°
2026-04-28 10:14 33.59087 108.16254 36212 ft 397 kts 206°
2026-04-28 10:14 33.53880 108.14063 36241 ft 397 kts 206°
2026-04-28 10:15 33.47805 108.11500 36255 ft 397 kts 206°
2026-04-28 10:15 33.43478 108.09669 36256 ft 396 kts 208°
2026-04-28 10:16 33.40281 108.07633 36261 ft 386 kts 220°
2026-04-28 10:16 33.38199 108.05650 36234 ft 383 kts 223°
2026-04-28 10:16 33.34786 108.02272 36240 ft 384 kts 223°
2026-04-28 10:17 33.30654 107.98232 36242 ft 385 kts 223°
2026-04-28 10:17 33.26499 107.94164 36248 ft 386 kts 223°
2026-04-28 10:18 33.21678 107.89410 36249 ft 387 kts 223°
2026-04-28 10:18 33.17539 107.85316 36245 ft 387 kts 224°
2026-04-28 10:19 33.13396 107.81226 36214 ft 388 kts 223°
2026-04-28 10:19 33.09233 107.77138 36228 ft 389 kts 223°
2026-04-28 10:20 33.05058 107.73043 36243 ft 390 kts 223°
2026-04-28 10:20 33.00877 107.68944 36248 ft 390 kts 223°
2026-04-28 10:21 32.97398 107.65529 36254 ft 390 kts 223°
2026-04-28 10:21 32.92517 107.60751 36225 ft 390 kts 222°
2026-04-28 10:22 32.89022 107.57334 36225 ft 392 kts 222°
2026-04-28 10:22 32.84810 107.53215 36229 ft 394 kts 222°
2026-04-28 10:23 32.80717 107.48898 36234 ft 392 kts 231°
2026-04-28 10:23 32.76955 107.42828 36234 ft 391 kts 235°
2026-04-28 10:24 32.74299 107.38470 36247 ft 392 kts 234°
2026-04-28 10:24 32.70585 107.32403 36245 ft 392 kts 234°
2026-04-28 10:25 32.67914 107.28045 36238 ft 393 kts 235°
2026-04-28 10:25 32.64706 107.22819 36242 ft 393 kts 234°
2026-04-28 10:26 32.60956 107.16701 36256 ft 393 kts 234°
2026-04-28 10:26 32.58285 107.12346 36271 ft 392 kts 234°
2026-04-28 10:27 32.54547 107.06260 36246 ft 393 kts 234°
2026-04-28 10:27 32.51342 107.01065 36224 ft 393 kts 234°
2026-04-28 10:28 32.48127 106.95861 36223 ft 393 kts 234°
2026-04-28 10:29 32.43841 106.88918 36220 ft 394 kts 234°
2026-04-28 10:29 32.40613 106.83690 36216 ft 394 kts 234°
2026-04-28 10:30 32.37380 106.78476 36217 ft 393 kts 234°
2026-04-28 10:30 32.34151 106.73282 36222 ft 394 kts 234°
2026-04-28 10:31 32.30909 106.68072 36223 ft 393 kts 233°
2026-04-28 10:31 32.27661 106.62871 36207 ft 394 kts 233°
2026-04-28 10:32 32.24402 106.57674 36188 ft 396 kts 233°
2026-04-28 10:32 32.21120 106.52464 36200 ft 397 kts 233°
2026-04-28 10:33 32.17828 106.47250 36183 ft 398 kts 233°
2026-04-28 10:33 32.14521 106.42000 36197 ft 399 kts 233°
2026-04-28 10:34 32.11216 106.36765 36200 ft 399 kts 233°
2026-04-28 10:34 32.07895 106.31526 36182 ft 399 kts 233°
2026-04-28 10:35 32.04024 106.25419 36178 ft 401 kts 232°
2026-04-28 10:35 32.01243 106.21027 36177 ft 402 kts 233°
2026-04-28 10:36 31.97897 106.15744 36179 ft 403 kts 233°
2026-04-28 10:36 31.93990 106.09579 36184 ft 404 kts 233°
2026-04-28 10:37 31.91189 106.05178 36184 ft 404 kts 232°
2026-04-28 10:37 31.87821 105.99910 36194 ft 404 kts 233°
2026-04-28 10:38 31.84457 105.94638 36169 ft 405 kts 232°
2026-04-28 10:38 31.81078 105.89350 36173 ft 406 kts 232°
2026-04-28 10:39 31.77683 105.84042 36181 ft 407 kts 232°
2026-04-28 10:39 31.73721 105.77856 36188 ft 407 kts 232°
2026-04-28 10:40 31.70323 105.72566 36201 ft 407 kts 233°
2026-04-28 10:40 31.67494 105.68165 36199 ft 407 kts 232°
2026-04-28 10:41 31.63514 105.61978 36189 ft 407 kts 232°
2026-04-28 10:41 31.60678 105.57578 36190 ft 408 kts 232°
2026-04-28 10:42 31.57248 105.52266 36188 ft 409 kts 232°
2026-04-28 10:42 31.53242 105.46066 36194 ft 409 kts 232°
2026-04-28 10:43 31.50379 105.41639 36198 ft 410 kts 232°
2026-04-28 10:43 31.46948 105.36339 36203 ft 410 kts 232°
2026-04-28 10:44 31.43506 105.31025 36212 ft 410 kts 232°
2026-04-28 10:44 31.39555 105.24762 36193 ft 411 kts 234°
2026-04-28 10:45 31.36864 105.20200 36193 ft 412 kts 235°
2026-04-28 10:45 31.33637 105.14665 36196 ft 413 kts 235°
2026-04-28 10:46 31.30362 105.09152 36206 ft 413 kts 234°
2026-04-28 10:46 31.27051 105.03659 36213 ft 413 kts 234°
2026-04-28 10:47 31.23749 104.98170 36217 ft 414 kts 234°
2026-04-28 10:47 31.20472 104.92691 36240 ft 414 kts 235°
2026-04-28 10:48 31.17173 104.87210 36233 ft 413 kts 235°
2026-04-28 10:48 31.13325 104.80833 36234 ft 413 kts 235°
2026-04-28 10:49 31.10019 104.75348 36232 ft 413 kts 235°
2026-04-28 10:49 31.06728 104.69897 36231 ft 413 kts 235°
2026-04-28 10:50 31.03411 104.64453 36240 ft 412 kts 234°
2026-04-28 10:50 31.00581 104.59972 36232 ft 412 kts 234°
2026-04-28 10:51 30.97148 104.54632 36232 ft 413 kts 233°
2026-04-28 10:51 30.93704 104.49276 36214 ft 414 kts 234°
2026-04-28 10:52 30.90276 104.43909 36215 ft 415 kts 234°
2026-04-28 10:52 30.86274 104.37632 36220 ft 415 kts 233°
2026-04-28 10:53 30.82770 104.32301 36227 ft 416 kts 233°
2026-04-28 10:53 30.79220 104.27011 36234 ft 416 kts 233°
2026-04-28 10:54 30.76261 104.22595 36238 ft 416 kts 233°
2026-04-28 10:54 30.72721 104.17302 36237 ft 416 kts 233°
2026-04-28 10:55 30.68600 104.11117 36236 ft 416 kts 233°
2026-04-28 10:55 30.65648 104.06697 36246 ft 416 kts 233°
2026-04-28 10:56 30.61530 104.00533 36252 ft 416 kts 235°
2026-04-28 10:56 30.60093 103.97652 36247 ft 415 kts 246°
2026-04-28 10:56 30.59440 103.95565 36250 ft 416 kts 253°
2026-04-28 10:56 30.58949 103.92279 36244 ft 418 kts 265°
2026-04-28 10:57 30.59067 103.88870 36242 ft 422 kts 276°
2026-04-28 10:57 30.61015 103.81218 36260 ft 426 kts 284°
2026-04-28 10:58 30.62535 103.75792 36261 ft 425 kts 284°
2026-04-28 10:58 30.64349 103.69263 36263 ft 425 kts 284°
2026-04-28 10:59 30.66043 103.62720 36275 ft 423 kts 282°
2026-04-28 10:59 30.67594 103.56157 36275 ft 423 kts 281°
2026-04-28 11:00 30.69401 103.48487 36311 ft 423 kts 281°
2026-04-28 11:00 30.70720 103.43006 36303 ft 422 kts 282°
2026-04-28 11:01 30.72302 103.36479 36311 ft 421 kts 281°
2026-04-28 11:01 30.74139 103.28855 36322 ft 420 kts 282°
2026-04-28 11:02 30.75439 103.23430 36325 ft 419 kts 281°
2026-04-28 11:02 30.76988 103.16922 36327 ft 419 kts 281°
2026-04-28 11:03 30.78542 103.10405 36324 ft 419 kts 281°
2026-04-28 11:03 30.80087 103.03882 36333 ft 418 kts 279°
2026-04-28 11:04 30.80548 102.97248 36321 ft 411 kts 265°
2026-04-28 11:04 30.80427 102.90628 36285 ft 410 kts 266°
2026-04-28 11:05 30.80315 102.83973 36288 ft 413 kts 266°
2026-04-28 11:05 30.80191 102.77324 36295 ft 412 kts 266°
2026-04-28 11:06 30.80062 102.70669 36269 ft 413 kts 266°
2026-04-28 11:06 30.79931 102.64010 36266 ft 413 kts 265°
2026-04-28 11:07 30.79806 102.57343 36247 ft 414 kts 266°
2026-04-28 11:07 30.79648 102.49533 36269 ft 413 kts 265°
2026-04-28 11:08 30.79529 102.43991 36230 ft 413 kts 265°
2026-04-28 11:08 30.79366 102.36205 36245 ft 414 kts 265°
2026-04-28 11:09 30.79221 102.29530 36208 ft 414 kts 266°
2026-04-28 11:09 30.79090 102.23945 36206 ft 415 kts 265°
2026-04-28 11:10 30.78914 102.16146 36175 ft 415 kts 265°
2026-04-28 11:10 30.78786 102.10547 36175 ft 416 kts 265°
2026-04-28 11:11 30.78627 102.03844 36182 ft 416 kts 266°
2026-04-28 11:11 30.78430 101.96017 36191 ft 417 kts 266°
2026-04-28 11:12 30.78311 101.90440 36171 ft 416 kts 269°
2026-04-28 11:12 30.78837 101.83705 36164 ft 419 kts 272°
2026-04-28 11:13 30.79410 101.76984 36154 ft 418 kts 272°
2026-04-28 11:13 30.79964 101.70271 36157 ft 420 kts 272°
2026-04-28 11:14 30.80517 101.63533 36159 ft 419 kts 272°
2026-04-28 11:14 30.81068 101.56813 36155 ft 418 kts 272°
2026-04-28 11:15 30.81613 101.50064 36161 ft 418 kts 272°
2026-04-28 11:15 30.82158 101.43349 36148 ft 418 kts 272°
2026-04-28 11:16 30.82698 101.36632 36150 ft 418 kts 272°
2026-04-28 11:16 30.83324 101.28779 36151 ft 418 kts 272°
2026-04-28 11:17 30.83765 101.23194 36135 ft 418 kts 272°
2026-04-28 11:17 30.84297 101.16458 36121 ft 418 kts 272°
2026-04-28 11:18 30.84827 101.09736 36123 ft 419 kts 272°
2026-04-28 11:18 30.85351 101.02987 36125 ft 419 kts 272°
2026-04-28 11:19 30.85950 100.95101 36114 ft 420 kts 272°
2026-04-28 11:19 30.86376 100.89472 36110 ft 419 kts 272°
2026-04-28 11:20 30.86974 100.81601 36101 ft 421 kts 272°
2026-04-28 11:20 30.87490 100.74816 36133 ft 421 kts 272°
2026-04-28 11:21 30.87919 100.69165 36122 ft 421 kts 272°
2026-04-28 11:21 30.88426 100.62411 36129 ft 420 kts 272°
2026-04-28 11:22 30.88924 100.55642 36135 ft 419 kts 272°
2026-04-28 11:22 30.89418 100.48909 36108 ft 417 kts 272°
2026-04-28 11:23 30.89903 100.42203 36114 ft 416 kts 272°
2026-04-28 11:23 30.90388 100.35498 36098 ft 415 kts 272°
2026-04-28 11:24 30.90864 100.28801 36120 ft 415 kts 272°
2026-04-28 11:24 30.91344 100.22105 36096 ft 416 kts 272°
2026-04-28 11:25 30.91823 100.15420 36083 ft 417 kts 272°
2026-04-28 11:25 30.92293 100.08700 36088 ft 417 kts 272°
2026-04-28 11:26 30.92837 100.00840 36083 ft 419 kts 272°
2026-04-28 11:26 30.93247 99.95216 36100 ft 420 kts 273°
2026-04-28 11:27 30.93792 99.88464 36106 ft 420 kts 274°
2026-04-28 11:27 30.94348 99.81684 36120 ft 420 kts 274°
2026-04-28 11:28 30.94890 99.74941 36114 ft 421 kts 274°
2026-04-28 11:28 30.95423 99.68163 36110 ft 421 kts 274°
2026-04-28 11:29 30.96026 99.60245 36112 ft 422 kts 274°
2026-04-28 11:29 30.96458 99.54584 36114 ft 422 kts 274°
2026-04-28 11:30 30.96975 99.47787 36106 ft 421 kts 274°
2026-04-28 11:30 30.97745 99.37612 36100 ft 421 kts 275°
2026-04-28 11:31 30.98257 99.30806 36105 ft 422 kts 275°
2026-04-28 11:31 30.98842 99.22899 36073 ft 421 kts 275°
2026-04-28 11:32 30.99344 99.16092 36079 ft 421 kts 275°
2026-04-28 11:32 30.99760 99.10434 36080 ft 422 kts 275°
2026-04-28 11:33 31.00252 99.03650 36052 ft 422 kts 275°
2026-04-28 11:33 31.00826 98.95709 36063 ft 423 kts 275°
2026-04-28 11:34 31.01237 98.90038 36072 ft 423 kts 275°
2026-04-28 11:34 31.01729 98.83212 36067 ft 423 kts 275°
2026-04-28 11:35 31.02207 98.76389 36053 ft 423 kts 275°
2026-04-28 11:35 31.02764 98.68442 36066 ft 422 kts 276°
2026-04-28 11:36 31.03172 98.62776 36065 ft 422 kts 276°
2026-04-28 11:36 31.03842 98.54841 36055 ft 422 kts 277°
2026-04-28 11:37 31.04334 98.49195 36047 ft 421 kts 277°
2026-04-28 11:37 31.04902 98.42426 36056 ft 421 kts 277°
2026-04-28 11:38 31.05462 98.35628 36040 ft 421 kts 276°
2026-04-28 11:38 31.06015 98.28840 36060 ft 421 kts 277°
2026-04-28 11:39 31.06558 98.22061 36055 ft 421 kts 277°
2026-04-28 11:39 31.07095 98.15270 36072 ft 421 kts 277°
2026-04-28 11:40 31.07635 98.08499 36079 ft 421 kts 277°
2026-04-28 11:40 31.08185 98.01721 36070 ft 420 kts 277°
2026-04-28 11:41 31.08739 97.94952 36088 ft 420 kts 277°
2026-04-28 11:41 31.09279 97.88194 36090 ft 419 kts 277°
2026-04-28 11:42 31.09898 97.80316 36088 ft 419 kts 277°
2026-04-28 11:42 31.10425 97.73555 36085 ft 419 kts 277°
2026-04-28 11:43 31.10863 97.67922 36075 ft 419 kts 277°
2026-04-28 11:43 31.11385 97.61168 36083 ft 419 kts 276°
2026-04-28 11:44 31.11910 97.54414 36050 ft 419 kts 277°
2026-04-28 11:44 31.12514 97.46532 36061 ft 419 kts 277°
2026-04-28 11:45 31.12937 97.40891 36062 ft 419 kts 277°
2026-04-28 11:45 31.13444 97.34131 36062 ft 419 kts 277°
2026-04-28 11:46 31.13956 97.27379 36050 ft 418 kts 277°
2026-04-28 11:46 31.14458 97.20619 36056 ft 420 kts 275°
2026-04-28 11:47 31.13869 97.13850 36053 ft 426 kts 259°
2026-04-28 11:47 31.12424 97.07146 36054 ft 426 kts 259°
2026-04-28 11:48 31.10746 96.99331 36056 ft 426 kts 259°
2026-04-28 11:48 31.09558 96.93757 36066 ft 426 kts 259°
2026-04-28 11:49 31.08127 96.87068 36079 ft 427 kts 259°
2026-04-28 11:49 31.06434 96.79243 36085 ft 426 kts 259°
2026-04-28 11:50 31.05219 96.73665 36090 ft 426 kts 259°
2026-04-28 11:50 31.03767 96.66993 36080 ft 425 kts 259°
2026-04-28 11:51 31.02310 96.60306 36082 ft 427 kts 259°
2026-04-28 11:51 31.00853 96.53634 36085 ft 426 kts 259°
2026-04-28 11:52 30.99398 96.46962 36081 ft 425 kts 259°
2026-04-28 11:52 30.97944 96.40301 36079 ft 425 kts 260°
2026-04-28 11:53 30.96527 96.33635 36065 ft 424 kts 260°
2026-04-28 11:53 30.95133 96.26969 36069 ft 424 kts 261°
2026-04-28 11:54 30.93727 96.20303 36071 ft 425 kts 260°
2026-04-28 11:54 30.92302 96.13633 36069 ft 425 kts 260°
2026-04-28 11:55 30.90877 96.06979 36042 ft 425 kts 260°
2026-04-28 11:55 30.89449 96.00316 36054 ft 425 kts 260°
2026-04-28 11:56 30.88022 95.93664 36044 ft 424 kts 260°
2026-04-28 11:56 30.86601 95.87010 36056 ft 425 kts 260°
2026-04-28 11:57 30.85170 95.80363 36054 ft 424 kts 260°
2026-04-28 11:57 30.83729 95.73726 36039 ft 423 kts 260°
2026-04-28 11:58 30.82328 95.67076 36022 ft 423 kts 261°
2026-04-28 11:58 30.80975 95.60422 36040 ft 423 kts 261°
2026-04-28 11:59 30.79614 95.53787 36049 ft 424 kts 261°
2026-04-28 11:59 30.78004 95.46038 36063 ft 424 kts 260°
2026-04-28 12:00 30.76852 95.40505 36078 ft 424 kts 260°
2026-04-28 12:00 30.75460 95.33864 36064 ft 424 kts 261°
2026-04-28 12:01 30.74074 95.27213 36092 ft 423 kts 260°
2026-04-28 12:01 30.72690 95.20593 36096 ft 423 kts 260°
2026-04-28 12:02 30.71289 95.13957 36120 ft 422 kts 260°
2026-04-28 12:02 30.69897 95.07354 36114 ft 422 kts 260°
2026-04-28 12:03 30.68495 95.00729 36125 ft 422 kts 260°
2026-04-28 12:03 30.67097 94.94124 36109 ft 422 kts 260°
2026-04-28 12:04 30.65701 94.87538 36133 ft 419 kts 261°
2026-04-28 12:04 30.64304 94.80982 36138 ft 421 kts 260°
2026-04-28 12:05 30.62896 94.74398 36138 ft 421 kts 260°
2026-04-28 12:05 30.61483 94.67827 36142 ft 420 kts 261°
2026-04-28 12:06 30.60076 94.61257 36141 ft 420 kts 261°
2026-04-28 12:06 30.58662 94.54697 36122 ft 420 kts 260°
2026-04-28 12:07 30.57247 94.48142 36153 ft 419 kts 260°
2026-04-28 12:07 30.55590 94.40515 36172 ft 419 kts 260°
2026-04-28 12:08 30.54407 94.35069 36165 ft 419 kts 260°
2026-04-28 12:08 30.52985 94.28521 36160 ft 418 kts 260°
2026-04-28 12:09 30.51328 94.20924 36180 ft 418 kts 260°
2026-04-28 12:09 30.50158 94.15473 36167 ft 416 kts 261°
2026-04-28 12:10 30.48817 94.08962 36178 ft 417 kts 261°
2026-04-28 12:10 30.47485 94.02451 36188 ft 415 kts 261°
2026-04-28 12:11 30.46135 93.95943 36179 ft 416 kts 261°
2026-04-28 12:11 30.44774 93.89435 36172 ft 417 kts 261°
2026-04-28 12:12 30.43402 93.82926 36173 ft 416 kts 261°
2026-04-28 12:12 30.42029 93.76429 36153 ft 414 kts 261°
2026-04-28 12:13 30.40667 93.69969 36167 ft 415 kts 261°
2026-04-28 12:13 30.39305 93.63493 36150 ft 413 kts 261°
2026-04-28 12:14 30.37679 93.57095 36139 ft 415 kts 255°
2026-04-28 12:14 30.35736 93.50816 36099 ft 416 kts 255°
2026-04-28 12:15 30.33786 93.44516 36110 ft 417 kts 255°
2026-04-28 12:15 30.31834 93.38206 36120 ft 418 kts 255°
2026-04-28 12:16 30.29867 93.31883 36075 ft 418 kts 254°
2026-04-28 12:16 30.27899 93.25575 36091 ft 419 kts 255°
2026-04-28 12:17 30.25607 93.18201 36056 ft 418 kts 255°
2026-04-28 12:17 30.23970 93.12931 36056 ft 419 kts 254°
2026-04-28 12:18 30.21992 93.06602 36046 ft 418 kts 254°
2026-04-28 12:18 30.20019 93.00340 36017 ft 417 kts 255°
2026-04-28 12:19 30.18034 92.94020 36016 ft 418 kts 255°
2026-04-28 12:19 30.16065 92.87719 36013 ft 418 kts 255°
2026-04-28 12:20 30.14089 92.81441 36007 ft 418 kts 255°
2026-04-28 12:20 30.12101 92.75144 36014 ft 418 kts 255°
2026-04-28 12:21 30.10113 92.68850 36031 ft 418 kts 255°
2026-04-28 12:21 30.08119 92.62560 36000 ft 418 kts 254°
2026-04-28 12:22 30.06133 92.56291 35996 ft 417 kts 255°
2026-04-28 12:22 30.04176 92.49998 35994 ft 417 kts 255°
2026-04-28 12:23 30.02233 92.43700 35981 ft 418 kts 256°
2026-04-28 12:23 30.00283 92.37408 35991 ft 417 kts 255°
2026-04-28 12:24 29.98310 92.31122 35978 ft 417 kts 254°
2026-04-28 12:24 29.96000 92.23783 35940 ft 419 kts 254°
2026-04-28 12:25 29.94351 92.18527 35950 ft 419 kts 254°
2026-04-28 12:25 29.92374 92.12223 35937 ft 420 kts 254°
2026-04-28 12:26 29.90391 92.05909 35945 ft 419 kts 253°
2026-04-28 12:26 29.88405 91.99612 35936 ft 419 kts 253°
2026-04-28 12:27 29.86411 91.93302 35916 ft 421 kts 254°
2026-04-28 12:27 29.84413 91.86991 35895 ft 420 kts 253°
2026-04-28 12:28 29.82409 91.80687 35896 ft 421 kts 253°
2026-04-28 12:28 29.80427 91.74367 35891 ft 420 kts 254°
2026-04-28 12:29 29.78452 91.68014 34595 ft 431 kts 253°
2026-04-28 12:29 29.77436 91.64742 33684 ft 437 kts 253°
2026-04-28 12:29 29.76408 91.61450 32752 ft 440 kts 253°
2026-04-28 12:30 29.75365 91.58120 31758 ft 445 kts 253°
2026-04-28 12:30 29.74307 91.54751 30739 ft 451 kts 252°
2026-04-28 12:30 29.73239 91.51359 29660 ft 456 kts 252°
2026-04-28 12:30 29.72158 91.47916 28676 ft 458 kts 252°
2026-04-28 12:31 29.70754 91.43441 28444 ft 437 kts 252°
2026-04-28 12:31 29.70075 91.41275 28349 ft 426 kts 252°
2026-04-28 12:31 29.69089 91.38131 28215 ft 411 kts 252°
2026-04-28 12:31 29.68141 91.35096 28068 ft 398 kts 252°
2026-04-28 12:32 29.67222 91.32152 27949 ft 385 kts 253°
2026-04-28 12:32 29.66450 91.29261 27737 ft 375 kts 257°
2026-04-28 12:32 29.65899 91.26353 27400 ft 370 kts 262°
2026-04-28 12:32 29.65553 91.23433 26984 ft 368 kts 266°
2026-04-28 12:33 29.65396 91.20515 26567 ft 366 kts 270°
2026-04-28 12:33 29.65423 91.17608 26156 ft 364 kts 274°
2026-04-28 12:33 29.65549 91.14718 25740 ft 362 kts 270°
2026-04-28 12:33 29.65295 91.11857 25302 ft 362 kts 259°
2026-04-28 12:34 29.64628 91.09082 24688 ft 360 kts 250°
2026-04-28 12:34 29.63144 91.05673 23858 ft 358 kts 238°
2026-04-28 12:34 29.62168 91.04136 23442 ft 358 kts 231°
2026-04-28 12:34 29.60441 91.02096 22729 ft 357 kts 222°
2026-04-28 12:35 29.58445 91.00429 22026 ft 356 kts 212°
2026-04-28 12:35 29.56244 90.99160 21361 ft 355 kts 205°
2026-04-28 12:35 29.53991 90.98022 20713 ft 353 kts 205°
2026-04-28 12:35 29.51020 90.96524 19934 ft 348 kts 204°
2026-04-28 12:36 29.49552 90.95783 19402 ft 349 kts 204°
2026-04-28 12:36 29.47319 90.94652 18721 ft 350 kts 204°
2026-04-28 12:36 29.45136 90.93547 18510 ft 335 kts 204°
2026-04-28 12:36 29.43060 90.92498 18372 ft 320 kts 204°
2026-04-28 12:37 29.40445 90.91111 18148 ft 303 kts 211°
2026-04-28 12:37 29.39322 90.90152 17694 ft 310 kts 224°
2026-04-28 12:37 29.38072 90.88146 17271 ft 309 kts 245°
2026-04-28 12:37 29.37474 90.85836 16915 ft 303 kts 264°
2026-04-28 12:38 29.37355 90.83498 16774 ft 286 kts 264°
2026-04-28 12:38 29.37130 90.81312 16787 ft 267 kts 260°
2026-04-28 12:38 29.36783 90.79247 16715 ft 263 kts 257°
2026-04-28 12:38 29.36232 90.77261 16140 ft 261 kts 240°
2026-04-28 12:39 29.34997 90.75798 15932 ft 256 kts 210°
2026-04-28 12:39 29.33337 90.75220 15159 ft 255 kts 182°
2026-04-28 12:39 29.31604 90.75629 14288 ft 253 kts 153°
2026-04-28 12:39 29.30309 90.76876 13915 ft 242 kts 126°
2026-04-28 12:40 29.29620 90.79225 13549 ft 231 kts 91°
2026-04-28 12:40 29.29630 90.80414 13356 ft 226 kts 88°
2026-04-28 12:40 29.29658 90.82186 12979 ft 219 kts 88°
2026-04-28 12:40 29.29685 90.83905 12531 ft 212 kts 88°
2026-04-28 12:41 29.29709 90.85556 12208 ft 201 kts 88°
2026-04-28 12:41 29.29732 90.87101 11936 ft 190 kts 88°
2026-04-28 12:41 29.29756 90.88581 11692 ft 182 kts 88°
2026-04-28 12:41 29.29787 90.90004 11513 ft 173 kts 87°
2026-04-28 12:42 29.29804 90.91300 11472 ft 154 kts 89°
2026-04-28 12:42 29.29814 90.92210 11447 ft 64 kts 89°
2026-04-28 12:42 29.29818 90.92381 11446 ft 7 kts 86°
2026-04-28 12:42 29.29823 90.92436 11433 ft 7 kts 85°
2026-04-28 12:43 29.29825 90.92504 11445 ft 11 kts 89°
2026-04-28 12:43 29.29828 90.92622 11444 ft 18 kts 88°
2026-04-28 12:43 29.29831 90.92787 11443 ft 18 kts 88°
2026-04-28 12:43 29.29781 90.92875 11441 ft 14 kts 147°
2026-04-28 12:44 29.29708 90.92927 11439 ft 12 kts 145°
2026-04-28 12:44 29.29672 90.93009 11446 ft 12 kts 95°
2026-04-28 12:44 29.29671 90.93108 11447 ft 13 kts 89°
2026-04-28 12:44 29.29673 90.93213 11446 ft 13 kts 89°
2026-04-28 12:45 29.29648 90.93264 11440 ft 7 kts 156°
2026-04-28 12:45 29.29582 90.93255 11441 ft 8 kts 231°
2026-04-28 12:45 29.29574 90.93215 11443 ft 8 kts 265°
2026-04-28 12:45 29.29573 90.93146 11444 ft 9 kts 269°
2026-04-28 12:46 29.29572 90.93069 11442 ft 10 kts 269°
2026-04-28 12:46 29.29570 90.92984 11448 ft 11 kts 269°
2026-04-28 12:46 29.29569 90.92893 11448 ft 12 kts 269°
2026-04-28 12:46 29.29568 90.92796 11448 ft 13 kts 269°
2026-04-28 12:47 29.29566 90.92693 11449 ft 13 kts 269°
2026-04-28 12:47 29.29564 90.92584 11450 ft 14 kts 269°
2026-04-28 12:47 29.29563 90.92470 11450 ft 15 kts 269°
2026-04-28 12:47 29.29560 90.92312 11450 ft 15 kts 269°
2026-04-28 12:48 29.29559 90.92231 11450 ft 15 kts 269°
2026-04-28 12:48 29.29556 90.92107 11449 ft 16 kts 268°
2026-04-28 12:48 29.29555 90.91977 11450 ft 16 kts 269°
2026-04-28 12:48 29.29553 90.91845 11440 ft 17 kts 269°
2026-04-28 12:49 29.29551 90.91711 11450 ft 17 kts 269°
2026-04-28 12:49 29.29549 90.91574 11455 ft 18 kts 269°
2026-04-28 12:49 29.29547 90.91430 11470 ft 18 kts 270°
2026-04-28 12:49 29.29545 90.91286 11467 ft 19 kts 269°
2026-04-28 12:50 29.29543 90.91135 11469 ft 19 kts 269°
2026-04-28 12:50 29.29540 90.90981 11468 ft 20 kts 269°
2026-04-28 12:50 29.29539 90.90825 11469 ft 20 kts 269°
2026-04-28 12:50 29.29536 90.90675 11457 ft 15 kts 268°
2026-04-28 12:51 29.29534 90.90555 11473 ft 15 kts 269°
2026-04-28 12:51 29.29532 90.90431 11474 ft 16 kts 269°
2026-04-28 12:51 29.29530 90.90309 11474 ft 10 kts 269°
2026-04-28 12:51 29.29529 90.90223 11474 ft 11 kts 269°
2026-04-28 12:52 29.29528 90.90130 11471 ft 12 kts 269°
2026-04-28 12:52 29.29526 90.90032 11470 ft 13 kts 269°
2026-04-28 12:52 29.29525 90.89928 11471 ft 13 kts 269°
2026-04-28 12:52 29.29523 90.89821 11471 ft 14 kts 269°
2026-04-28 12:53 29.29521 90.89708 11469 ft 15 kts 269°
2026-04-28 12:53 29.29520 90.89589 11475 ft 15 kts 269°
2026-04-28 12:53 29.29518 90.89474 11475 ft 12 kts 269°
2026-04-28 12:53 29.29516 90.89430 11475 ft 4 kts 256°
2026-04-28 12:54 29.29493 90.89413 11459 ft 4 kts 195°
2026-04-28 12:54 29.29460 90.89410 11461 ft 5 kts 183°
2026-04-28 12:54 29.29421 90.89407 11469 ft 6 kts 184°
2026-04-28 12:54 29.29396 90.89405 11465 ft 2 kts 184°
2026-04-28 12:55 29.29389 90.89405 11468 ft 1 kts 184°
2026-04-28 12:55 29.29388 90.89405 11468 ft 0 kts 184°